[[{"header":{"parameterUnit":"m.s-1","parameterCategory":1,"la1":30.2991,"la2":30.254,"lo1":-89.0895,"lo2":-89.0444,"dy":0.0017,"dx":0.0017,"nx":28,"ny":28,"refTime":"2023-08-07T21:00:00:Z","depth":0,"parameterNumber":2,"parameterNumberName":"U-component_of_WINDS"},"data":[0,0,0,0,0,0,0,0,0,0,0,0,0,0,0,0,0,0,0,0,0,0,0,0,0,0,0,0,0,0,0,0,0,0,0,0,0,0,0,0,0,0,0,0,0,0,0,0,0,0,0,0,0,0,0,0,0,0,5.173,5.1731,0,5.1883,5.1885,5.1887,5.1836,5.1833,5.1829,5.1826,5.1984,5.1991,5.1998,0,0,0,0,0,0,0,0,0,0,0,0,0,5.1393,5.1399,5.173,5.1732,5.1734,5.1883,5.1885,5.1887,5.1837,5.1833,5.1829,5.1825,5.1982,5.199,5.1999,0,0,0,0,0,0,0,0,0,0,0,0,0,5.1542,5.1401,5.1729,5.1726,5.1728,5.1882,5.1885,5.1888,5.1837,5.1832,5.1827,5.1823,5.1979,5.199,5.2,5.2168,0,0,5.2034,5.2039,0,0,0,0,0,0,0,0,5.1534,5.1554,5.1725,5.1727,5.1728,5.1835,5.1824,5.1982,5.1839,5.1796,5.1826,5.182,5.1939,5.1953,5.1992,5.2175,5.2182,5.2035,5.2041,5.2046,5.2049,0,0,0,0,0,0,0,5.1523,5.1548,5.179,5.1727,5.173,5.1717,5.1733,5.1854,5.1893,5.1799,5.1796,5.1815,5.1939,5.1982,5.1996,5.2184,5.2034,5.2044,5.2051,5.2055,5.251,5.2515,0,0,0,0,0,0,5.1512,5.1539,5.1785,5.1795,5.1617,5.1727,5.1745,5.1806,5.1892,5.19,5.1819,5.1812,5.1966,5.1983,5.2001,5.2201,5.2046,5.2056,5.2063,5.2505,5.2511,5.2517,0,0,0,0,0,0,5.1505,5.1534,5.1779,5.1666,5.1697,5.1738,5.1808,5.1812,5.1855,5.1907,5.1913,5.1856,5.1962,5.1986,5.2126,5.2206,5.2061,5.2071,5.2498,5.2507,5.2514,5.2603,0,0,0,0,0,0,5.1495,5.1532,5.1596,5.1668,5.1703,5.1902,5.1813,5.1818,5.1874,5.1866,5.1943,5.1951,5.196,5.211,5.2137,5.2218,5.208,5.2491,5.2502,5.2512,5.2594,5.2614,5.2631,0,0,0,0,0,5.1484,5.1616,5.16,5.163,5.1784,5.1907,5.1927,5.1934,5.188,5.1945,5.1978,5.1949,5.2193,5.2125,5.2155,5.2241,5.2486,5.2499,5.2511,5.2585,5.261,5.2631,0,0,0,0,0,0,5.1553,5.1625,5.1608,5.1768,5.1831,5.1898,5.198,5.1961,5.2041,5.2031,5.2037,5.2055,5.2199,5.2234,5.2157,5.2406,5.2332,5.2351,5.2378,5.2402,5.242,5.2408,5.2089,0,0,0,0,0,5.1587,5.168,5.1739,5.1874,5.1907,5.1938,5.1992,5.1992,5.2058,5.2085,5.2129,5.2194,5.2286,5.2346,5.2433,5.2599,5.2614,5.2673,5.2691,5.2706,5.2722,5.2811,5.2837,5.2558,5.2558,5.2558,0,0,5.1658,5.1709,5.1768,5.1889,5.1938,5.2035,5.1961,5.2067,5.2138,5.2101,5.2236,5.227,5.2344,5.2497,5.2567,5.2531,5.2803,5.2722,5.2734,5.2742,5.2826,5.2853,5.2876,5.2566,5.2565,5.2563,0,0,5.1835,5.1884,5.2001,5.2052,5.2127,5.2147,5.2175,5.2245,5.2266,5.2401,5.2375,5.2461,5.2619,5.2671,5.2719,5.2916,5.2892,5.2945,5.3042,5.3128,5.315,5.317,5.3239,5.3263,5.2961,5.2961,5.2961,0,5.1914,5.2058,5.2064,5.2172,5.2225,5.2196,5.2314,5.2363,5.2464,5.2501,5.2459,5.2656,5.2703,5.2868,5.2916,5.2956,5.2987,5.2935,5.3147,5.3166,5.3185,5.325,5.3276,5.2967,5.2966,5.2965,5.2965,0,5.215,5.2251,5.2336,5.2433,5.2496,5.2609,5.2631,5.2695,5.269,5.2714,5.2851,5.2907,5.3004,5.3044,5.304,5.3208,5.3183,5.3144,5.3069,5.3217,5.3279,5.3304,5.2975,5.2973,5.2971,5.297,0,0,5.2376,5.2474,5.2505,5.2547,5.2628,5.2706,5.2817,5.2911,5.2965,5.3035,5.3128,5.3261,5.3226,5.328,5.3282,5.3358,5.3508,5.331,5.3311,5.3343,5.3695,5.3722,5.3751,5.3493,5.3498,5.3502,5.3688,0,5.2559,5.2753,5.2761,5.2938,5.303,5.3003,5.31,5.3159,5.3185,5.3267,5.3295,5.3389,5.3335,5.3368,5.3442,5.3474,5.3579,5.3461,5.3578,5.3582,5.3559,5.3783,5.3813,5.3986,5.3712,5.3716,5.3719,0,5.2799,5.2876,5.3062,5.3128,5.3167,5.3253,5.3339,5.3418,5.3485,5.3498,5.3558,5.3549,5.3662,5.3584,5.3739,5.3658,5.3707,5.373,5.3737,5.3747,5.3659,5.3798,5.4041,5.4067,5.3758,5.3755,5.3752,0,5.2943,5.3093,5.3223,5.3261,5.3341,5.3402,5.3439,5.3501,5.3557,5.3633,5.3669,5.3757,5.3805,5.3874,5.3888,5.383,5.4043,5.3966,5.4056,5.4056,5.4101,5.4098,5.4354,5.4135,5.4135,5.4134,5.4134,0,5.3146,5.3261,5.3288,5.3368,5.3495,5.3503,5.3628,5.366,5.3716,5.3801,5.3784,5.3864,5.388,5.3963,5.3976,5.4101,5.4124,5.4137,5.4138,5.4137,5.4135,5.4168,5.4156,5.4141,5.414,5.4138,5.4137,0,5.3328,5.3351,5.3491,5.3556,5.3575,5.3665,5.372,5.3797,5.382,5.3928,5.3954,5.399,5.4088,5.4109,5.4226,5.4234,5.4382,5.4373,5.4359,5.4358,5.4445,5.4436,5.473,5.4768,5.4526,5.4528,5.453,0,5.3455,5.3542,5.3616,5.3671,5.3711,5.3801,5.3857,5.3868,5.3928,5.401,5.4076,5.4172,5.4248,5.4405,5.4442,5.453,5.4522,5.4619,5.4535,5.4531,5.4521,5.4515,5.4523,5.4634,5.4637,5.4639,5.4641,0,5.3678,5.3685,5.3767,5.3853,5.3921,5.3989,5.4054,5.4101,5.4121,5.4188,5.4287,5.4347,5.4464,5.4559,5.4647,5.4685,5.4666,5.4667,5.4692,5.4691,5.4679,5.4685,5.4401,5.466,5.4658,5.4657,5.4656,5.4655,5.3836,5.3911,5.3974,5.4065,5.4115,5.4176,5.425,5.4282,5.4365,5.4461,5.4463,5.457,5.4634,5.4751,5.4794,5.4878,5.4848,5.4884,5.4893,5.4902,5.4909,5.4667,5.4894,5.4894,5.4893,5.4893,5.4892,0,5.4056,5.4095,5.4179,5.427,5.4342,5.4318,5.4388,5.445,5.4544,5.4605,5.4681,5.4794,5.4885,5.4929,5.5019,5.5078,5.5071,5.5101,5.5096,5.5104,5.4932,5.49,5.5104,5.5104,5.5104,5.5104,5.5104,5.5104,5.4179,5.4304,5.4319,5.4469,5.4507,5.4611,5.4654,5.4709,5.4758,5.4884,5.496,5.4987,5.5041,5.5135,5.5217,5.5228,5.5261,5.5294,5.5301,5.5138,5.5117,5.5096,5.5066,5.5302,5.5302,5.5466,5.5468,5.5469]},{"header":{"parameterUnit":"m.s-1","parameterCategory":1,"la1":30.2991,"la2":30.254,"lo1":-89.0895,"lo2":-89.0444,"dy":0.0017,"dx":0.0017,"nx":28,"ny":28,"refTime":"2023-08-07T21:00:00:Z","depth":0,"parameterNumber":3,"parameterNumberName":"V-component_of_WINDS"},"data":[0,0,0,0,0,0,0,0,0,0,0,0,0,0,0,0,0,0,0,0,0,0,0,0,0,0,0,0,0,0,0,0,0,0,0,0,0,0,0,0,0,0,0,0,0,0,0,0,0,0,0,0,0,0,0,0,0,0,0.8904,0.8904,0,0.8869,0.8869,0.8869,0.8814,0.8813,0.8812,0.8812,0.8777,0.8777,0.8777,0,0,0,0,0,0,0,0,0,0,0,0,0,0.8923,0.8923,0.8904,0.8904,0.8903,0.887,0.8869,0.8869,0.8815,0.8813,0.8812,0.8811,0.8777,0.8777,0.8777,0,0,0,0,0,0,0,0,0,0,0,0,0,0.8904,0.8923,0.8904,0.8872,0.8869,0.887,0.8869,0.8868,0.8815,0.8813,0.8812,0.8811,0.8777,0.8777,0.8777,0.8807,0,0,0.8777,0.8777,0,0,0,0,0,0,0,0,0.8906,0.8904,0.8877,0.8874,0.8871,0.8845,0.8863,0.8848,0.8815,0.8835,0.8812,0.881,0.8801,0.8799,0.8796,0.8805,0.8804,0.8777,0.8777,0.8777,0.8777,0,0,0,0,0,0,0,0.8907,0.8905,0.889,0.8877,0.8873,0.8859,0.8855,0.886,0.8827,0.8834,0.883,0.8826,0.8799,0.8796,0.8794,0.8803,0.8777,0.8777,0.8777,0.8777,0.8834,0.8835,0,0,0,0,0,0,0.8913,0.8906,0.8891,0.8889,0.8885,0.886,0.8856,0.8855,0.8827,0.8821,0.8827,0.8824,0.8797,0.8795,0.8793,0.8825,0.8777,0.8777,0.8777,0.8832,0.8834,0.8835,0,0,0,0,0,0,0.8914,0.8912,0.8893,0.8897,0.8893,0.8862,0.8861,0.8855,0.8852,0.8822,0.8816,0.883,0.8795,0.8793,0.8803,0.8823,0.8777,0.8777,0.883,0.8833,0.8835,0.889,0,0,0,0,0,0,0.8914,0.8913,0.8924,0.8897,0.8893,0.8904,0.8862,0.8855,0.8852,0.8846,0.8823,0.8818,0.8794,0.8804,0.8803,0.8822,0.8777,0.8828,0.8831,0.8834,0.8886,0.8894,0.89,0,0,0,0,0,0.8915,0.8941,0.8925,0.8923,0.8906,0.8905,0.8903,0.8875,0.8853,0.8864,0.8845,0.8819,0.8821,0.8805,0.8804,0.8824,0.8827,0.883,0.8834,0.8883,0.8892,0.89,0,0,0,0,0,0,0.8971,0.8937,0.8918,0.8937,0.8924,0.8896,0.8909,0.8885,0.8879,0.8875,0.884,0.8835,0.885,0.8837,0.882,0.885,0.882,0.8823,0.8858,0.8866,0.8873,0.8876,0.8777,0,0,0,0,0,0.8986,0.8987,0.8957,0.8976,0.8971,0.8941,0.894,0.8919,0.8905,0.8899,0.8881,0.8868,0.8866,0.8865,0.8862,0.8884,0.8878,0.8897,0.8904,0.891,0.8913,0.8923,0.8931,0.8847,0.8847,0.8846,0,0,0.9016,0.8997,0.9001,0.8987,0.8975,0.8978,0.8937,0.8942,0.8943,0.89,0.8908,0.8894,0.8878,0.8894,0.8901,0.8885,0.8935,0.8914,0.8919,0.8919,0.8928,0.8936,0.8943,0.8849,0.8848,0.8848,0,0,0.9072,0.9058,0.9072,0.906,0.9042,0.9022,0.9025,0.9,0.8989,0.8997,0.8964,0.8965,0.8962,0.8951,0.8946,0.8996,0.8972,0.8996,0.9033,0.9043,0.905,0.9056,0.9074,0.9081,0.8999,0.8999,0.9,0,0.9111,0.9114,0.9082,0.9088,0.9083,0.9043,0.9057,0.9047,0.9029,0.9026,0.9009,0.9003,0.8989,0.9002,0.9014,0.9011,0.9014,0.8999,0.9052,0.9057,0.9062,0.9079,0.9086,0.9003,0.9002,0.9002,0.9002,0,0.9163,0.9166,0.9179,0.9162,0.9158,0.9168,0.9138,0.9138,0.9117,0.9098,0.9106,0.9088,0.9079,0.908,0.906,0.909,0.9081,0.9058,0.9027,0.9074,0.9089,0.9095,0.9007,0.9006,0.9005,0.9004,0,0,0.9255,0.9219,0.9225,0.9216,0.9192,0.9193,0.9201,0.9192,0.9193,0.9181,0.9187,0.9185,0.9163,0.9156,0.9134,0.9143,0.9184,0.9119,0.9118,0.9132,0.9215,0.9233,0.9241,0.9167,0.9168,0.9169,0.9217,0,0.9307,0.9318,0.9289,0.9308,0.9309,0.927,0.9277,0.9263,0.9245,0.9244,0.9224,0.9223,0.9195,0.919,0.9197,0.9178,0.92,0.9174,0.9172,0.9173,0.9178,0.9249,0.9268,0.9314,0.9223,0.9224,0.9224,0,0.9369,0.9359,0.9378,0.9352,0.9352,0.9359,0.9348,0.9347,0.933,0.9316,0.9308,0.9282,0.9288,0.9258,0.9265,0.9247,0.9244,0.9234,0.9235,0.9235,0.9202,0.9251,0.9328,0.9336,0.9233,0.9232,0.9232,0,0.9434,0.9426,0.9436,0.943,0.94,0.9406,0.9393,0.9375,0.9371,0.9361,0.9359,0.935,0.9345,0.9339,0.9311,0.9291,0.9321,0.9289,0.931,0.9311,0.9319,0.9319,0.9398,0.9317,0.9317,0.9317,0.9317,0,0.9494,0.9508,0.9465,0.9471,0.9484,0.945,0.9464,0.9448,0.9432,0.9434,0.94,0.9403,0.9365,0.9364,0.9342,0.9351,0.9349,0.9338,0.9332,0.9342,0.9343,0.934,0.9336,0.9318,0.9318,0.9318,0.9317,0,0.957,0.9542,0.955,0.9521,0.9514,0.9525,0.9499,0.9504,0.9484,0.9487,0.9486,0.9454,0.945,0.9422,0.9412,0.9397,0.9414,0.9402,0.942,0.9416,0.944,0.9438,0.952,0.9529,0.9442,0.9443,0.9443,0,0.9611,0.962,0.9591,0.959,0.9579,0.9578,0.9574,0.954,0.9537,0.9518,0.9524,0.9518,0.9511,0.9507,0.9483,0.9475,0.9463,0.9492,0.9461,0.947,0.9463,0.9463,0.9464,0.9499,0.95,0.9501,0.9501,0,0.9687,0.9672,0.9667,0.9657,0.9652,0.9643,0.9631,0.9632,0.9595,0.9593,0.9589,0.9583,0.9573,0.9567,0.9554,0.9542,0.9516,0.9511,0.9516,0.9525,0.9536,0.953,0.9438,0.951,0.9509,0.9508,0.9508,0.9507,0.9746,0.9752,0.9732,0.9728,0.9715,0.9705,0.9707,0.9687,0.9683,0.9671,0.9651,0.965,0.9631,0.9612,0.9601,0.9599,0.9584,0.9591,0.9593,0.9595,0.96,0.9535,0.9597,0.9597,0.9597,0.9596,0.9596,0,0.982,0.9805,0.9801,0.9785,0.9782,0.9756,0.9742,0.974,0.9739,0.9724,0.9718,0.9713,0.9706,0.9681,0.9672,0.9675,0.9663,0.9674,0.9674,0.9671,0.9614,0.9611,0.9684,0.9684,0.9684,0.9684,0.9684,0.9684,0.9858,0.9866,0.9849,0.9851,0.9836,0.9834,0.9828,0.9818,0.9805,0.9801,0.9795,0.9779,0.976,0.9748,0.9741,0.9734,0.9732,0.9748,0.9737,0.9684,0.9675,0.9667,0.9664,0.9747,0.9748,0.9794,0.9794,0.9794]}]]